Regional Weather Roundup
Issued by NWS

Home | Current Version | Previous Version | Graphics & Text | Print | Product List | Glossary On
Versions: 1 2 3 4 5 6 7 8 9 10 11 12 13 14 15 16 17 18 19 20 21 22 23 24 25 26 27 28 29 30 31 32 33 34 35 36 37 38 39 40 41 42 43 44 45 46 47 48 49 50
000
ASUS44 KMEG 210400
RWRTN
TENNESSEE HOURLY STATE WEATHER ROUNDUP
NATIONAL WEATHER SERVICE MEMPHIS TN
1000 PM CST SAT DEC 20 2014

TNZ002-004-019-021-049-052-054-088>092-210500-
WEST TENNESSEE

CITY           SKY/WX    TMP DP  RH WIND       PRES   REMARKS
MEMPHIS INTL   PTCLDY    41  31  67 E5        30.25R
NWS MEMPHIS      N/A     39 N/A N/A MISG        N/A
JACKSON        CLEAR     32  28  85 CALM      30.27R
DYERSBURG      CLEAR     34  19  55 NE3       30.29R
UNION CITY     CLEAR     28  28 100 CALM      30.26S
PARIS          CLEAR     27  23  86 CALM      30.27R
LEXINGTON      CLEAR     30  27  86 CALM      30.25R
SAVANNAH       CLEAR     28  27  93 CALM      30.26R
$$

TNZ008-025-027-028-033-062-065-066-210500-
NORTH MIDDLE TENNESSEE

CITY           SKY/WX    TMP DP  RH WIND       PRES   REMARKS
NASHVILLE      PTCLDY    33  27  78 CALM      30.27S
CLARKSVILLE    CLEAR     28  25  88 CALM      30.28S
COOKEVILLE     CLEAR     27  25  93 CALM      30.24R
CROSSVILLE     CLEAR     34  25  69 NE3       30.22S
$$

TNZ061-075-076-078-094-096-097-210500-
SOUTH MIDDLE TENNESSEE

CITY           SKY/WX    TMP DP  RH WIND       PRES   REMARKS
FAYETTEVILLE   CLEAR     34  27  75 N13       30.22S WCI  25
TULLAHOMA      CLEAR     28  25  86 CALM      30.24R
WINCHESTER     CLEAR     27  25  93 CALM      30.23S
SHELBYVILLE    CLEAR     34  28  80 CALM      30.25S
$$

TNZ017-018-042-046-047-210500-
NORTHEAST TENNESSEE

CITY           SKY/WX    TMP DP  RH WIND       PRES   REMARKS
TRI CITIES     CLOUDY    40  38  93 CALM      30.23S FOG
ELIZABETHTON   CLOUDY    37  36  93 CALM      30.22S FOG
$$

TNZ012-013-036-069-073-074-210500-
CENTRAL EAST TENNESSEE

CITY           SKY/WX    TMP DP  RH WIND       PRES   REMARKS
KNOXVILLE      CLOUDY    41  36  82 NE5       30.23S
OAK RIDGE      CLEAR     34  30  85 CALM      30.25S
GATLINBURG     CLOUDY    37  37 100 CALM      30.23S
$$

TNZ083-085-099-210500-
SOUTHEAST TENNESSEE

CITY           SKY/WX    TMP DP  RH WIND       PRES   REMARKS
CHATTANOOGA    PTCLDY    35  32  88 CALM      30.24S
$$

SKY/WX REPORTED AS FAIR MEANS FEW OR NO CLOUDS BELOW
12 THOUSAND FEET.




USA.gov is the U.S. government's official web portal to all federal, state and local government web resources and services.